• Join FlightAware (Why Join?)
  • Login
  • US Flag 
12:51PM EST


 

Airport Tracker/Info


-or-


 

Live Flight TrackerFlight Track Log ✈ AWE616 ✈ 30-Jun-2013 ✈ KONT - KPHX

Flight Track Log - Related Links

Times and Time Zones

All times are in EDT time to prevent confusion due to time zone crossing. See the AWE616 flight status page for this flight to view local times or setup timezone preferences in your user account.

Time Position Orientation Groundspeed Altitude Reporting Facility
EDT Latitude Longitude Course Direction KTS MPH feet Rate Location/Type
12:48AM 34.0500 -117.6167 180° South 164 189 1,800  Level Southern California TRACON
12:49AM 34.0167 -117.6167 180° South 197 227 3,300 1,752 Climbing Southern California TRACON
12:52AM 33.8933 -117.5050 143° Southeast 266 306 7,700 2,099 Climbing Los Angeles Center
12:53AM 33.8075 -117.4364 146° Southeast 296 341 10,400 2,049 Climbing Los Angeles Center
12:54AM 33.7367 -117.3681 141° Southeast 323 372 11,900 1,756 Climbing Los Angeles Center
12:55AM 33.7200 -117.2506 100° East 357 411 14,000 2,115 Climbing Los Angeles Center
12:56AM 33.7103 -117.1275 95° East 368 423 16,200 1,967 Climbing Los Angeles Center
12:57AM 33.7044 -117.0275 94° East 374 430 18,000 2,098 Climbing Los Angeles Center
12:58AM 33.6906 -116.8739 96° East 384 442 20,500 2,098 Climbing Los Angeles Center
12:59AM 33.6797 -116.7381 95° East 396 456 22,300 1,512 Climbing Los Angeles Center
01:00AM 33.6681 -116.6022 96° East 417 480 23,600 1,268 Climbing Los Angeles Center
01:01AM 33.6556 -116.4614 96° East 419 482 24,900 1,268 Climbing Los Angeles Center
01:02AM 33.6425 -116.3172 96° East 429 494 26,200 1,220 Climbing Los Angeles Center
01:03AM 33.6267 -116.1386 96° East 445 512 27,400 1,082 Climbing Los Angeles Center
01:04AM 33.6239 -115.9883 91° East 448 516 28,400 780 Climbing Los Angeles Center
01:05AM 33.6200 -115.8367 92° East 452 520 29,000 244 Climbing Los Angeles Center
01:06AM 33.6072 -115.6836 96° East 456 525 28,900 -49 Descending Los Angeles Center
01:07AM 33.5914 -115.5289 97° East 464 534 28,900  Level Los Angeles Center
01:08AM 33.5794 -115.3775 95° East 459 528 28,900  Level Los Angeles Center
01:09AM 33.5678 -115.2253 95° East 458 527 28,900 -246 Level Los Angeles Center
01:10AM 33.5519 -115.0706 97° East 464 534 28,400 -732 Descending Los Angeles Center
01:11AM 33.5381 -114.9178 96° East 463 533 27,400 -927 Descending Los Angeles Center
01:12AM 33.5236 -114.7672 97° East 458 527 26,500 -934 Descending Los Angeles Center
01:13AM 33.5078 -114.6206 97° East 450 518 25,500 -780 Descending Los Angeles Center
01:14AM 33.4972 -114.4528 94° East 430 495 24,900 -244 Descending Los Angeles Center
01:15AM 33.4831 -114.3092 97° East 434 499 25,000  Climbing Los Angeles Center
01:16AM 33.4700 -114.1672 96° East 431 496 24,900 -49 Descending Los Angeles Center
01:17AM 33.4536 -114.0258 98° East 430 495 24,900  Level Los Angeles Center
01:18AM 33.4225 -113.8856 105° East 435 501 24,900 -344 Level Los Angeles Center
01:19AM 33.4014 -113.7431 100° East 438 504 24,200 -976 Descending Los Angeles Center
01:20AM 33.3864 -113.6131 98° East 425 489 22,900 -1,463 Descending Los Angeles Center
01:21AM 33.3692 -113.4783 99° East 413 475 21,200 -1,820 Descending Los Angeles Center
01:22AM 33.3481 -113.3156 99° East 414 476 19,200 -1,918 Descending Los Angeles Center
01:23AM 33.3311 -113.1858 99° East 401 461 17,300 -1,707 Descending Los Angeles Center
01:24AM 33.3139 -113.0592 99° East 390 449 15,700 -1,548 Descending Los Angeles Center